Location: Enchastnaves
(44.3667°N, 6.6951°E)
Time: 03:46:39
(UTC+00:00)

Daily predictions for brighter satellites

Satellite Brightness Start Highest point End
(mag) Time Altitude Azimuth Time Altitude Azimuth Time Altitude Azimuth
Cosmos 1707 Rocket 4.2 00:01:42 10° NNW 00:05:18 47° WNW 00:05:18 47° WNW
Okean 1 4.1 00:02:22 10° NNW 00:05:27 46° NW 00:05:27 46° NW
Cosmos 494 Rocket 3.8 00:13:18 72° WSW 00:13:39 75° WNW 00:18:47 10° NNE
Cosmos 2285 Rocket 4.2 00:09:18 10° NNW 00:15:24 53° WSW 00:16:07 50° SW
Meteor 2-9 4.4 00:15:31 74° SSW 00:16:02 89° W 00:21:29 10° N
Cosmos 2333 Rocket 2.5 00:10:37 10° NW 00:16:01 49° WSW 00:16:01 49° WSW
ATLAS 5 CENTAUR R/B 2.7 00:19:05 10° NNW 00:24:37 63° NE 00:28:59 21° SE
Cosmos 2360 Rocket 3.8 00:21:46 10° NW 00:25:09 19° W 00:25:09 19° W
Cosmos 1452 Rocket 4.4 00:22:38 10° NW 00:26:57 34° W 00:26:57 34° W
PSLV R/B 4.4 00:23:21 10° N 00:27:54 46° WNW 00:28:18 45° W
Cosmos 1980 4.1 00:22:20 10° NNW 00:27:56 58° ENE 00:30:19 33° SE
Cosmos 2242 Rocket 4.1 00:23:40 10° N 00:27:57 49° ENE 00:28:16 48° E
Cosmos 1666 3.2 00:29:45 56° N 00:29:45 56° N 00:32:53 10° N
Meteor 1-14 Rocket 4.1 00:30:32 61° SW 00:31:21 71° WNW 00:36:56 10° N
Cosmos 2322 4.4 00:27:09 10° NW 00:32:15 38° WSW 00:32:15 38° WSW
Cosmos 1378 3.9 00:33:15 10° N 00:36:24 49° NE 00:36:24 49° NE
Cosmos 1536 3.7 00:40:02 40° E 00:40:02 40° E 00:43:41 10° NNE
APEX 4.0 00:40:59 64° SSW 00:41:53 90° ESE 00:48:13 10° NNE
Resurs 1-4 Rocket 2.8 00:37:52 10° NNE 00:42:56 42° E 00:44:08 37° SE
Meteor 1-13 Rocket 4.4 00:38:49 10° N 00:44:40 68° ENE 00:46:32 43° SE
Cosmos 2297 Rocket 2.3 00:46:29 53° SSE 00:47:32 63° ESE 00:53:09 10° NNE
NOSS 3-1 (C) 4.5 00:44:45 10° NW 00:52:03 45° WSW 00:54:02 39° SSW
Cosmos 2237 Rocket 2.2 00:46:50 10° NNW 00:52:33 82° ENE 00:54:35 42° SSE
Cosmos 1869 Rocket 3.9 00:53:48 54° ESE 00:54:16 57° E 00:58:40 10° NNE
NPP 4.4 00:50:29 10° NNE 00:55:37 44° E 00:57:13 35° SE
Cosmos 2227 Rocket 2.4 00:56:52 47° SSE 00:58:08 58° ESE 01:03:40 10° NNE
TSX-5 3.9 00:59:09 68° NNW 00:59:09 68° NNW 01:03:05 10° NNE
Cosmos 1709 Rocket 4.0 00:58:20 49° SSW 01:00:10 77° W 01:06:33 10° N
USA 229 DEB 4.0 00:55:40 10° NW 01:02:52 56° WSW 01:05:34 39° S
USA 229 4.0 00:55:46 10° NW 01:02:58 57° WSW 01:05:44 39° S
Timation 2 Rocket 4.3 01:01:41 39° SSE 01:03:25 50° ESE 01:09:14 10° NE
Meteor 2-4 Rocket 4.3 00:58:48 10° NNW 01:04:21 42° W 01:05:16 39° WSW
Cosmos 1933 Rocket 4.1 01:07:30 44° W 01:07:43 45° WNW 01:12:02 10° N
UNK 4.1 01:06:32 40° SE 01:08:04 63° ENE 01:12:42 10° N
NOSS 0 Rocket 4.1 01:04:23 10° NW 01:10:23 51° WSW 01:11:33 45° SW
MOZ.5/SAFIR/RUBIN 5/SL-8 3.8 01:11:26 56° WSW 01:11:47 57° W 01:16:28 10° NNW
COSMOS 2428 3.9 01:08:25 10° NW 01:12:40 25° W 01:12:40 25° W
Lacrosse 5 2.2 01:12:35 47° SSE 01:13:12 50° SE 01:18:06 10° ENE
ADEOS Rocket 3.2 01:11:00 24° SE 01:14:26 61° ENE 01:19:50 10° N
SL-16 R/B 3.1 01:09:57 10° NNW 01:15:24 46° ENE 01:20:50 10° SE
SL-16 R/B 2.5 01:13:31 33° SSE 01:16:33 87° ENE 01:22:46 10° NNW
CZ-2D R/B 2.1 01:11:39 10° NNE 01:17:02 82° ESE 01:18:42 46° S
Cosmos 1544 3.2 01:18:15 65° NW 01:18:15 65° NW 01:21:37 10° N
Helios 1A 3.5 01:18:25 44° W 01:18:25 44° W 01:22:12 10° NNW
Okean 1-7 3.4 01:14:10 10° NNW 01:18:05 46° W 01:18:05 46° W
COSMOS 2455 4.4 01:14:38 16° W 01:18:20 28° NW 01:23:27 10° NNE
Cosmos 2184 Rocket 4.4 01:18:03 30° SSE 01:21:06 59° E 01:27:16 10° NNE
BREEZE-M DEB (TANK) 4.1 01:22:26 25° ENE 01:22:26 25° ENE 01:23:39 10° ENE
Cosmos 909 Rocket 4.2 01:18:54 41° SSW 01:21:26 81° ESE 01:28:57 10° NE
Okean 3 3.3 01:18:09 10° NNW 01:22:27 76° W 01:22:53 68° SSW
NOSS 3-1 (A) 4.4 01:15:54 10° NW 01:23:14 46° WSW 01:26:38 32° SSW
Cosmos 2219 Rocket 3.9 01:19:55 10° WNW 01:22:37 16° W 01:22:37 16° W
ADEOS II 2.7 01:20:39 10° NNE 01:25:45 48° E 01:28:02 29° SSE
Cosmos 1340 Rocket 4.0 01:27:12 29° WNW 01:27:12 29° WNW 01:30:40 10° N
Cosmos 2263 Rocket 4.3 01:23:46 11° SE 01:27:20 18° E 01:31:06 10° ENE
Cosmos 1743 2.5 01:33:42 71° SW 01:34:00 78° W 01:37:51 10° N
IRS-1D 4.3 01:32:59 10° NNE 01:37:44 44° E 01:40:15 25° SSE
ASTEX 1 4.0 01:38:33 36° WSW 01:39:14 38° W 01:43:48 10° NNW
NOSS 2-2 (D) 4.4 01:34:04 10° NW 01:39:35 83° SW 01:47:22 10° SSE
Meteor 1-28 Rocket 4.3 01:37:42 21° SE 01:39:45 41° ENE 01:43:17 10° N
Cosmos 1975 4.1 01:38:02 24° SE 01:39:48 35° E 01:43:33 10° NNE
AQUA 3.7 01:35:33 10° NNE 01:40:21 89° ESE 01:41:55 43° SSW
Cosmos 2219 3.5 01:42:03 35° SW 01:44:22 59° WNW 01:50:04 10° NNE
Helios 1B rocket 2.3 01:40:27 10° NNE 01:44:34 81° WNW 01:45:31 52° SSW
Cosmos 2074 Rocket 3.9 01:43:18 32° S 01:46:24 87° W 01:52:40 10° N
Cosmos 2344 4.4 01:44:39 19° S 01:49:20 39° ESE 01:56:12 10° NE
Cosmos 614 Rocket 4.0 01:52:44 33° S 01:55:02 76° ESE 02:00:16 10° NNE
Iridium 4 Rocket 4.0 01:50:23 10° N 01:55:48 67° E 02:00:21 17° SSE
Cosmos 2084 Rocket 3.4 01:51:50 10° NW 01:56:01 58° SW 01:57:51 32° S
Landsat 4 4.1 01:53:35 10° NNE 01:57:14 55° E 01:58:33 34° SSE
Cosmos 1707 4.4 01:56:00 10° N 01:59:29 32° ENE 02:02:55 10° SE
Cosmos 192 4.3 01:54:31 10° NNW 01:59:29 87° ENE 02:03:39 14° SSE
Cosmos 407 Rocket 4.5 01:57:16 19° SSE 02:00:40 41° ESE 02:05:36 10° NE
DELTA 2 DEB (DPAF) 4.4 01:58:15 17° SSE 02:01:39 69° ENE 02:06:05 10° N
Cosmos 1992 Rocket 4.2 01:57:16 10° NNW 02:02:21 51° WSW 02:04:37 30° SSW
Cosmos 2082 3.7 02:02:39 31° SSW 02:05:32 82° WNW 02:11:19 10° NNE
MINOTAUR 4 R/B 3.9 02:05:02 41° S 02:06:08 75° WSW 02:09:43 10° NNW
Cosmos 1733 Rocket 3.0 02:05:38 35° SSW 02:07:24 73° W 02:11:53 10° N
ATLAS 5 CENTAUR R/B 3.3 02:04:10 10° WNW 02:09:08 28° WSW 02:10:22 26° SW
MSX 4.5 02:04:56 10° NNE 02:10:32 51° E 02:15:17 14° S
Cosmos 1842 3.1 02:07:31 10° NNW 02:11:23 74° W 02:13:03 32° S
CZ-4C R/B 3.6 02:06:08 10° NNW 02:13:15 61° NE 02:21:32 10° SE
IDEFIX/ARIANE 42P 2.6 02:13:13 10° NNE 02:18:26 79° ESE 02:22:01 21° S
USA 215 4.2 02:12:35 10° ENE 02:18:32 36° SE 02:23:07 16° S
Meteor 1-21 4.3 02:12:50 10° N 02:18:38 84° E 02:24:27 10° SSE
Cosmos 1356 Rocket 3.7 02:17:51 22° S 02:20:20 62° E 02:24:19 10° NNE
Resurs 1-4 Rocket 3.4 02:18:05 10° N 02:22:32 28° WNW 02:25:13 18° WSW
CBERS-1 4.0 02:21:10 10° NNE 02:26:19 86° WNW 02:29:52 21° SSW
Cosmos 2341 Rocket 4.3 02:23:01 11° S 02:29:00 68° E 02:35:12 10° NNE
Cosmos 2251 Rocket 4.0 02:27:52 23° SW 02:30:51 49° WNW 02:36:00 10° N
Cosmos 2297 Rocket 3.8 02:28:17 13° W 02:32:03 24° NW 02:36:34 10° N
Meteor 1-29 3.6 02:29:00 10° N 02:32:06 37° WNW 02:33:12 28° WSW
Cosmos 2237 Rocket 3.8 02:32:47 10° WNW 02:35:49 15° W 02:36:20 15° WSW
Cosmos 1340 4.2 02:36:16 10° N 02:39:46 36° ENE 02:43:15 10° SE
SL-08 R/B 4.1 02:35:21 10° SSE 02:40:11 58° ENE 02:45:03 10° N
Okean 2 3.5 02:37:00 10° NNW 02:41:07 58° W 02:44:23 15° S
Cosmos 1782 Rocket 4.3 02:37:16 10° S 02:41:28 51° E 02:45:42 10° NNE
Nadezhda 3 Rocket 4.2 02:35:24 10° NNW 02:41:34 53° W 02:47:13 12° SSW
Cosmos 1238 Rocket 2.6 02:40:33 28° SW 02:41:45 45° WNW 02:44:55 10° N
Cosmos 1603 4.4 02:36:50 10° NNW 02:42:22 57° ENE 02:47:54 10° SE
Cosmos 2227 Rocket 3.7 02:38:41 13° W 02:42:34 25° NW 02:47:13 10° N
Spot 1 3.9 02:39:58 10° SSE 02:44:10 89° WSW 02:48:17 10° NNW
BREEZE-M DEB (TANK) 3.7 02:38:45 15° WSW 02:47:42 82° SSE 02:51:03 10° ENE
Cosmos 1626 4.2 02:44:54 10° NNE 02:48:09 28° ENE 02:51:23 10° SE
CZ-2C R/B 3.7 02:44:21 10° NNE 02:48:33 35° E 02:52:45 10° SSE
Cosmos 1674 3.5 02:45:13 10° N 02:48:59 52° ENE 02:52:43 10° SSE
CZ-4C R/B 3.4 02:46:36 10° S 02:50:34 61° W 02:54:47 10° NNW
Cosmos 1190 Rocket 4.1 02:46:23 14° SSW 02:50:54 83° ESE 02:56:15 10° NNE
Lacrosse 5 2.9 02:51:46 11° W 02:56:18 39° NNW 03:01:04 10° NE
CZ-2D R/B 4.1 02:53:15 10° NNW 02:56:25 16° WNW 02:59:36 10° W
Cosmos 2227 4.3 02:52:28 13° SSW 02:57:32 81° ESE 03:03:11 10° NNE
Iridium 45 4.5 02:54:44 10° S 02:58:20 90° W 03:01:51 10° N
Cosmos 1140 Rocket 3.6 02:54:33 15° SSW 02:58:51 69° WNW 03:04:07 10° NNE
SL-16 R/B 3.1 02:54:31 10° NW 02:59:15 28° WSW 03:03:58 10° SSW
ADEOS Rocket 4.2 02:57:57 15° WSW 03:00:24 19° W 03:04:14 10° NW
SL-16 R/B 4.1 02:58:36 13° WSW 03:00:56 15° W 03:04:23 10° NW
ERS-1 4.5 02:58:19 10° NNE 03:03:22 88° WNW 03:08:20 10° SSW
ARIANE 5 R/B 2.6 02:58:52 10° NNE 03:04:02 86° WNW 03:09:14 10° SSW
ADEOS II 3.4 03:00:56 10° N 03:05:08 25° WNW 03:08:58 12° WSW
Cosmos 1954 Rocket 4.3 03:00:25 10° S 03:05:42 70° ESE 03:11:01 10° NNE
CZ-4B R/B 3.4 03:01:37 10° NNE 03:06:32 86° ESE 03:11:19 10° SSW
IRS-1C 4.2 03:02:50 10° N 03:08:09 65° WNW 03:13:25 10° SSW
ATLAS CENTAUR R/B 1.6 03:06:59 11° SSW 03:10:25 57° ESE 03:14:18 10° NE
Cosmos 2263 Rocket 2.3 03:05:29 13° SW 03:10:37 69° WNW 03:16:20 10° NNE
NOSS 3-3 (A) 3.9 03:05:31 13° SW 03:10:42 85° NW 03:17:16 10° NE
NOSS 3-3 (C) 3.9 03:05:38 13° SW 03:10:49 86° NW 03:17:21 10° NE
CZ-2C R/B 4.0 03:09:12 10° NNE 03:12:43 40° E 03:16:15 10° S
Spot 4 Rocket 4.3 03:08:35 10° NNE 03:13:45 71° ESE 03:18:53 10° S
Cosmos 1461 3.4 03:10:48 13° SW 03:14:46 55° NW 03:19:10 10° NNE
Cosmos 1805 3.3 03:17:49 10° S 03:21:42 82° E 03:25:37 10° N
Cosmos 1300 Rocket 4.0 03:19:44 10° S 03:24:00 65° E 03:28:19 10° NNE
Cosmos 1975 Rocket 3.1 03:21:51 10° NNW 03:26:14 66° W 03:30:33 10° S
KORONAS-FOTON 4.1 03:25:33 10° NNW 03:29:20 48° W 03:33:05 10° SSW
SL-14 R/B 4.0 03:26:34 10° N 03:30:24 57° E 03:34:15 10° SSE
GEOS 3 Rocket 4.0 03:27:00 10° SSE 03:32:06 44° WSW 03:37:12 10° NW
Cosmos 676 Rocket 4.1 03:27:57 10° SSW 03:33:15 72° WNW 03:38:37 10° NNE
Cosmos 1707 4.3 03:32:26 10° NW 03:35:03 18° W 03:37:40 10° SW
SL-8 R/B 3.8 03:30:24 10° WSW 03:35:13 88° NNW 03:40:04 10° ENE
Cosmos 44 3.5 03:32:27 10° NW 03:37:33 52° WSW 03:42:18 10° SSE
Cosmos 1943 3.4 03:34:42 10° NW 03:40:15 53° WSW 03:45:45 10° S
PAYLOAD A 4.2 03:35:46 10° N 03:41:11 69° WNW 03:46:30 10° SSW
